[[{"header":{"parameterUnit":"m.s-1","parameterCategory":1,"la1":30.2991,"la2":30.254,"lo1":-89.0895,"lo2":-89.0444,"dy":0.0017,"dx":0.0017,"nx":28,"ny":28,"refTime":"2024-04-04T21:00:00:Z","depth":0,"parameterNumber":2,"parameterNumberName":"U-component_of_WINDS"},"data":[0,0,0,0,0,0,0,0,0,0,0,0,0,0,0,0,0,0,0,0,0,0,0,0,0,0,0,0,0,0,0,0,0,0,0,0,0,0,0,0,0,0,0,0,0,0,0,0,0,0,0,0,0,0,0,0,0,0,-2.7824,-2.7824,0,-2.78,-2.78,-2.78,-2.7728,-2.7726,-2.7725,-2.7723,-2.7698,-2.7699,-2.77,0,0,0,0,0,0,0,0,0,0,0,0,0,-2.7809,-2.781,-2.7824,-2.7824,-2.7824,-2.78,-2.78,-2.78,-2.7728,-2.7726,-2.7724,-2.7722,-2.7698,-2.7699,-2.77,0,0,0,0,0,0,0,0,0,0,0,0,0,-2.7804,-2.781,-2.7824,-2.7785,-2.7781,-2.7801,-2.78,-2.78,-2.7729,-2.7726,-2.7724,-2.7722,-2.7698,-2.7699,-2.77,-2.7755,0,0,-2.7704,-2.7704,0,0,0,0,0,0,0,0,-2.7804,-2.7804,-2.7791,-2.7788,-2.7784,-2.7765,-2.7786,-2.7785,-2.7729,-2.7749,-2.7723,-2.772,-2.7722,-2.7721,-2.7722,-2.7754,-2.7753,-2.7704,-2.7705,-2.7705,-2.7706,0,0,0,0,0,0,0,-2.7805,-2.7805,-2.7815,-2.7791,-2.7786,-2.7769,-2.7766,-2.7785,-2.7749,-2.7747,-2.7741,-2.774,-2.772,-2.7721,-2.7721,-2.7753,-2.7704,-2.7705,-2.7706,-2.7706,-2.783,-2.7833,0,0,0,0,0,0,-2.781,-2.7806,-2.7815,-2.7814,-2.7788,-2.7771,-2.7768,-2.7773,-2.7749,-2.7743,-2.7742,-2.7736,-2.772,-2.772,-2.772,-2.7782,-2.7705,-2.7706,-2.7707,-2.7828,-2.7831,-2.7833,0,0,0,0,0,0,-2.781,-2.7812,-2.7816,-2.7808,-2.7808,-2.7774,-2.7781,-2.7774,-2.7775,-2.7745,-2.7738,-2.7749,-2.7718,-2.7718,-2.7747,-2.7781,-2.7707,-2.7708,-2.7825,-2.7829,-2.7832,-2.7909,0,0,0,0,0,0,-2.781,-2.7812,-2.7832,-2.7809,-2.7808,-2.7844,-2.7783,-2.7775,-2.7777,-2.777,-2.775,-2.7745,-2.7716,-2.7746,-2.7749,-2.7781,-2.7709,-2.7821,-2.7826,-2.7831,-2.7903,-2.7915,-2.7925,0,0,0,0,0,-2.781,-2.7854,-2.7834,-2.7835,-2.7833,-2.7846,-2.7845,-2.7812,-2.778,-2.78,-2.7782,-2.7745,-2.7778,-2.775,-2.7752,-2.7785,-2.7819,-2.7825,-2.7831,-2.7898,-2.7912,-2.7924,0,0,0,0,0,0,-2.7881,-2.785,-2.7827,-2.7865,-2.7859,-2.7834,-2.7857,-2.7828,-2.783,-2.7823,-2.7782,-2.7778,-2.7813,-2.7802,-2.7772,-2.7838,-2.7792,-2.7799,-2.7843,-2.7856,-2.7867,-2.7868,-2.771,0,0,0,0,0,-2.7901,-2.7915,-2.7887,-2.7924,-2.7922,-2.7891,-2.7895,-2.7871,-2.7862,-2.7859,-2.7842,-2.7835,-2.7844,-2.785,-2.7856,-2.7903,-2.7897,-2.7927,-2.7938,-2.7947,-2.7952,-2.7976,-2.7989,-2.7852,-2.7852,-2.7852,0,0,-2.7943,-2.7928,-2.7938,-2.7938,-2.793,-2.7945,-2.7889,-2.7907,-2.7917,-2.7861,-2.7887,-2.7876,-2.7866,-2.7904,-2.792,-2.7896,-2.799,-2.7954,-2.7962,-2.7962,-2.7984,-2.7997,-2.8008,-2.7856,-2.7856,-2.7855,0,0,-2.8025,-2.8016,-2.8045,-2.8039,-2.8029,-2.8008,-2.8016,-2.7996,-2.7986,-2.8012,-2.7971,-2.7984,-2.7999,-2.7994,-2.7993,-2.8079,-2.8045,-2.8082,-2.8137,-2.8162,-2.8172,-2.8182,-2.8211,-2.8222,-2.8088,-2.8088,-2.8088,0,-2.8078,-2.8098,-2.8064,-2.8085,-2.8086,-2.8039,-2.8068,-2.8064,-2.8056,-2.8058,-2.8033,-2.8052,-2.8042,-2.8079,-2.81,-2.8101,-2.8108,-2.8082,-2.8174,-2.8183,-2.8191,-2.8219,-2.823,-2.8093,-2.8092,-2.8092,-2.8091,0,-2.8164,-2.8179,-2.8204,-2.8198,-2.8203,-2.8228,-2.8199,-2.8208,-2.8184,-2.8167,-2.8195,-2.8182,-2.8185,-2.8193,-2.8169,-2.8227,-2.8212,-2.8181,-2.8134,-2.8209,-2.8234,-2.8245,-2.8099,-2.8097,-2.8096,-2.8095,0,0,-2.8286,-2.8264,-2.8273,-2.827,-2.8257,-2.8268,-2.8293,-2.8297,-2.8305,-2.8303,-2.8322,-2.8338,-2.8309,-2.8309,-2.8285,-2.8307,-2.8375,-2.8273,-2.8272,-2.8291,-2.8437,-2.8459,-2.8472,-2.8355,-2.8356,-2.8358,-2.8438,0,-2.8363,-2.8402,-2.8374,-2.8419,-2.8433,-2.8389,-2.8411,-2.8405,-2.8391,-2.8402,-2.8386,-2.8398,-2.836,-2.8359,-2.8379,-2.8362,-2.8403,-2.8357,-2.8371,-2.8372,-2.8372,-2.8485,-2.8508,-2.8583,-2.8447,-2.8449,-2.845,0,-2.8457,-2.846,-2.8506,-2.8491,-2.8496,-2.8515,-2.8517,-2.8528,-2.8522,-2.851,-2.8512,-2.8483,-2.8507,-2.8463,-2.8495,-2.8464,-2.847,-2.8463,-2.8465,-2.8463,-2.8414,-2.8484,-2.8607,-2.8617,-2.8466,-2.8464,-2.8463,0,-2.854,-2.8556,-2.8585,-2.8585,-2.8568,-2.8583,-2.8577,-2.8569,-2.8574,-2.8577,-2.8579,-2.8585,-2.8587,-2.8593,-2.8567,-2.8537,-2.8602,-2.8556,-2.8593,-2.8593,-2.8605,-2.8604,-2.8728,-2.8613,-2.8613,-2.8613,-2.8612,0,-2.8628,-2.8657,-2.8622,-2.864,-2.8673,-2.8642,-2.8675,-2.8664,-2.8658,-2.8674,-2.8638,-2.8653,-2.8619,-2.8632,-2.8612,-2.8642,-2.8644,-2.8635,-2.8628,-2.8636,-2.8637,-2.8637,-2.863,-2.8616,-2.8615,-2.8614,-2.8614,0,-2.8725,-2.8703,-2.8732,-2.8715,-2.8712,-2.8737,-2.8723,-2.8739,-2.8724,-2.8745,-2.8748,-2.8724,-2.8737,-2.8713,-2.8723,-2.8709,-2.8751,-2.8738,-2.8753,-2.8748,-2.8785,-2.8781,-2.8911,-2.8926,-2.8803,-2.8804,-2.8805,0,-2.878,-2.8802,-2.8789,-2.8797,-2.8794,-2.8807,-2.8813,-2.8784,-2.8791,-2.8788,-2.8805,-2.8815,-2.8821,-2.8845,-2.8828,-2.8836,-2.8822,-2.8867,-2.8822,-2.883,-2.882,-2.8819,-2.882,-2.8875,-2.8876,-2.8877,-2.8878,0,-2.8882,-2.8871,-2.8879,-2.8886,-2.8893,-2.8897,-2.8897,-2.8906,-2.8876,-2.8886,-2.89,-2.8905,-2.8916,-2.8927,-2.8931,-2.8926,-2.8897,-2.8893,-2.8902,-2.8909,-2.8916,-2.8911,-2.8775,-2.889,-2.8888,-2.8888,-2.8887,-2.8887,-2.8958,-2.8976,-2.897,-2.8982,-2.898,-2.8983,-2.8997,-2.8985,-2.8996,-2.9003,-2.8986,-2.9004,-2.8999,-2.9002,-2.9,-2.9014,-2.8994,-2.9006,-2.9009,-2.9012,-2.9018,-2.8916,-2.9015,-2.9015,-2.9014,-2.9014,-2.9014,0,-2.9057,-2.9052,-2.9063,-2.9066,-2.9076,-2.905,-2.9051,-2.906,-2.9076,-2.9075,-2.9083,-2.9099,-2.911,-2.9097,-2.9105,-2.9119,-2.9106,-2.9122,-2.9119,-2.9119,-2.9036,-2.9027,-2.9132,-2.9132,-2.9132,-2.9132,-2.9132,-2.9132,-2.9109,-2.9138,-2.9127,-2.9155,-2.915,-2.9167,-2.9169,-2.9172,-2.917,-2.919,-2.92,-2.9191,-2.9185,-2.9194,-2.9203,-2.9199,-2.9203,-2.9223,-2.9214,-2.9136,-2.9124,-2.9113,-2.9104,-2.9225,-2.9225,-2.9296,-2.9296,-2.9297]},{"header":{"parameterUnit":"m.s-1","parameterCategory":1,"la1":30.2991,"la2":30.254,"lo1":-89.0895,"lo2":-89.0444,"dy":0.0017,"dx":0.0017,"nx":28,"ny":28,"refTime":"2024-04-04T21:00:00:Z","depth":0,"parameterNumber":3,"parameterNumberName":"V-component_of_WINDS"},"data":[0,0,0,0,0,0,0,0,0,0,0,0,0,0,0,0,0,0,0,0,0,0,0,0,0,0,0,0,0,0,0,0,0,0,0,0,0,0,0,0,0,0,0,0,0,0,0,0,0,0,0,0,0,0,0,0,0,0,3.2515,3.2515,0,3.2493,3.2493,3.2493,3.2503,3.2504,3.2504,3.2505,3.2477,3.2476,3.2475,0,0,0,0,0,0,0,0,0,0,0,0,0,3.2562,3.2561,3.2515,3.2515,3.2515,3.2493,3.2493,3.2493,3.2503,3.2504,3.2504,3.2505,3.2478,3.2476,3.2475,0,0,0,0,0,0,0,0,0,0,0,0,0,3.2541,3.256,3.2515,3.2517,3.2517,3.2493,3.2493,3.2493,3.2503,3.2504,3.2505,3.2505,3.2478,3.2476,3.2475,3.2446,0,0,3.2469,3.2468,0,0,0,0,0,0,0,0,3.2542,3.2539,3.2517,3.2517,3.2517,3.2502,3.2499,3.2477,3.2503,3.2508,3.2505,3.2506,3.2484,3.2482,3.2476,3.2445,3.2443,3.2469,3.2467,3.2467,3.2466,0,0,0,0,0,0,0,3.2543,3.254,3.2506,3.2517,3.2517,3.2518,3.2516,3.2495,3.2492,3.2508,3.2508,3.2506,3.2485,3.2478,3.2475,3.2443,3.2469,3.2467,3.2466,3.2465,3.2388,3.2387,0,0,0,0,0,0,3.2545,3.2541,3.2507,3.2506,3.2532,3.2516,3.2514,3.2506,3.2492,3.2491,3.2505,3.2507,3.2481,3.2478,3.2474,3.2441,3.2467,3.2465,3.2464,3.2389,3.2388,3.2387,0,0,0,0,0,0,3.2546,3.2542,3.2508,3.2524,3.2519,3.2515,3.2505,3.2505,3.2498,3.249,3.2489,3.2499,3.2481,3.2477,3.2454,3.244,3.2464,3.2462,3.239,3.2389,3.2387,3.2373,0,0,0,0,0,0,3.2548,3.2542,3.2532,3.2523,3.2519,3.2488,3.2504,3.2504,3.2496,3.2497,3.2484,3.2483,3.2482,3.2456,3.2452,3.2438,3.2461,3.2391,3.2389,3.2388,3.2374,3.2371,3.2368,0,0,0,0,0,3.2549,3.2528,3.2532,3.2528,3.2506,3.2488,3.2485,3.2485,3.2494,3.2484,3.2479,3.2483,3.2442,3.2454,3.2449,3.2434,3.2392,3.239,3.2388,3.2376,3.2372,3.2368,0,0,0,0,0,0,3.2533,3.2526,3.2531,3.2506,3.2498,3.2489,3.2476,3.248,3.2468,3.2469,3.2469,3.2466,3.2441,3.2435,3.2448,3.2406,3.2418,3.2415,3.2411,3.2407,3.2404,3.2406,3.2459,0,0,0,0,0,3.2527,3.2514,3.2508,3.2487,3.2483,3.248,3.2472,3.2473,3.2464,3.2459,3.2453,3.2442,3.2427,3.2416,3.2402,3.2374,3.2371,3.2361,3.2358,3.2356,3.2353,3.2338,3.2334,3.238,3.238,3.238,0,0,3.2513,3.2508,3.25,3.2484,3.2477,3.2463,3.2477,3.246,3.245,3.2456,3.2434,3.2429,3.2417,3.2391,3.238,3.2385,3.2339,3.2353,3.2351,3.2349,3.2335,3.2331,3.2327,3.2379,3.2379,3.2379,0,0,3.2482,3.2476,3.2459,3.2453,3.2443,3.2442,3.2438,3.2429,3.2427,3.2405,3.2411,3.2397,3.237,3.2362,3.2354,3.2321,3.2325,3.2316,3.23,3.2285,3.2282,3.2278,3.2267,3.2263,3.2313,3.2313,3.2313,0,3.2465,3.2445,3.2448,3.2433,3.2425,3.2433,3.2415,3.2408,3.2394,3.2388,3.2396,3.2364,3.2356,3.2329,3.2321,3.2315,3.2309,3.2317,3.2282,3.2279,3.2276,3.2265,3.2261,3.2312,3.2313,3.2313,3.2313,0,3.2426,3.2412,3.2399,3.2388,3.2379,3.2361,3.2361,3.2351,3.2354,3.2352,3.2329,3.2321,3.2305,3.2299,3.23,3.2272,3.2276,3.2283,3.2295,3.2271,3.226,3.2256,3.2311,3.2311,3.2312,3.2312,0,0,3.2382,3.2375,3.237,3.2365,3.2356,3.2345,3.2328,3.2315,3.2307,3.2297,3.2282,3.2261,3.2268,3.2259,3.2259,3.2247,3.2222,3.2255,3.2255,3.2249,3.2191,3.2186,3.2181,3.2225,3.2224,3.2223,3.2192,0,3.2351,3.2323,3.2326,3.2299,3.2286,3.2294,3.228,3.2272,3.227,3.2258,3.2254,3.2239,3.2249,3.2244,3.2232,3.2228,3.221,3.223,3.221,3.221,3.2213,3.2176,3.217,3.2141,3.2188,3.2187,3.2187,0,3.2309,3.2301,3.2273,3.2268,3.2262,3.2249,3.2238,3.2227,3.2218,3.2217,3.2209,3.2212,3.2194,3.2207,3.2183,3.2196,3.2188,3.2185,3.2184,3.2182,3.2197,3.2173,3.2132,3.2128,3.2181,3.2181,3.2181,0,3.2281,3.2262,3.2243,3.2239,3.2232,3.2223,3.2219,3.2212,3.2204,3.2194,3.2189,3.2176,3.2168,3.2158,3.2157,3.2167,3.2132,3.2145,3.213,3.213,3.2122,3.2123,3.208,3.2117,3.2117,3.2117,3.2118,0,3.2245,3.2228,3.2231,3.2219,3.2201,3.2204,3.2184,3.2182,3.2175,3.2163,3.2168,3.2156,3.2156,3.2143,3.2142,3.2122,3.2118,3.2117,3.2117,3.2116,3.2117,3.2111,3.2113,3.2116,3.2117,3.2117,3.2117,0,3.221,3.2211,3.2192,3.2187,3.2186,3.2172,3.2168,3.2157,3.2155,3.214,3.2136,3.2133,3.2119,3.2117,3.21,3.2099,3.2075,3.2077,3.2079,3.2079,3.2064,3.2066,3.2016,3.201,3.2051,3.2051,3.2051,0,3.2187,3.2174,3.2169,3.2162,3.2159,3.2147,3.214,3.2142,3.2134,3.2125,3.2115,3.2101,3.2091,3.2067,3.2063,3.205,3.2051,3.2035,3.2049,3.205,3.2051,3.2052,3.2051,3.2032,3.2031,3.2031,3.2031,0,3.2146,3.2148,3.2138,3.2129,3.2121,3.2113,3.2106,3.21,3.2101,3.2092,3.2078,3.207,3.2054,3.204,3.2028,3.2022,3.2027,3.2027,3.2023,3.2022,3.2024,3.2023,3.2071,3.2027,3.2028,3.2028,3.2028,3.2028,3.2116,3.2106,3.2102,3.2091,3.2086,3.208,3.207,3.2068,3.2057,3.2045,3.2047,3.2032,3.2024,3.2008,3.2003,3.199,3.1995,3.1989,3.1988,3.1986,3.1985,3.2026,3.1988,3.1988,3.1988,3.1988,3.1988,0,3.2076,3.2074,3.2064,3.2056,3.2047,3.2054,3.2047,3.2039,3.2026,3.202,3.201,3.1994,3.1982,3.1977,3.1965,3.1956,3.1957,3.1952,3.1953,3.1952,3.1981,3.1986,3.1951,3.1951,3.1951,3.1951,3.1951,3.1951,3.2054,3.2038,3.2039,3.202,3.2018,3.2005,3.2,3.1994,3.1989,3.1972,3.1963,3.196,3.1955,3.1942,3.193,3.1929,3.1924,3.1919,3.1918,3.1946,3.1949,3.1953,3.1958,3.1917,3.1917,3.189,3.189,3.189]}]]